No particular awareness of the weather is required.    There are no Weather-warnings


Meteo18 Weather Cam more information Meteo18 Weather Cam


Thunder radar more information blitzortung!


Rain radar more information rain snow radar


Visit our other weather sites:

Template documentation
and downloads

And another site



Weather Underground History page Text

Daily Summary for August 5, 2017 Units:  Metric    English   Both
« Previous Day
Next Day »
Daily Weekly Monthly Yearly Custom
  High: Low: Average:
Temperature: 23.0 °C 16.8 °C 20.7 °C
Dew Point: 18.3 °C 10.9 °C 15 °C
Humidity: 92 % 50 % 71 %
Wind Speed: 17.7 km/h 0.0 km/h 5.7 km/h
Wind Gust: 22.5 km/h - -
Wind:- - West
Pressure: 1022.6 hPa 1016.1 hPa -
Precipitation: 0.0 mm    
Historical Graphs
 
 
Tabular Data for August 5, 2017
Time Temperature Dew Point Pressure Wind Wind Speed Wind Gust Humidity Rainfall Rate (Hourly)
00:02 21.2 °C 17.2 °C 1017.2 hPa Calm   1.6 km/h 78 % 0.0 mm
00:07 21.2 °C 17.0 °C 1017.2 hPa Calm   1.6 km/h 77 % 0.0 mm
00:12 21.1 °C 17.1 °C 1017.2 hPa Calm   1.6 km/h 78 % 0.0 mm
00:17 21.1 °C 17.1 °C 1017.2 hPa Calm   1.6 km/h 78 % 0.0 mm
00:22 20.9 °C 17.1 °C 1017.2 hPa Calm   1.6 km/h 79 % 0.0 mm
00:27 20.8 °C 17.2 °C 1017.2 hPa Calm   1.6 km/h 80 % 0.0 mm
00:32 20.8 °C 17.4 °C 1017.2 hPa Calm   1.6 km/h 81 % 0.0 mm
00:42 20.7 °C 17.3 °C 1017.2 hPa SSW 1.6 km/h 3.2 km/h 81 % 0.0 mm
00:47 20.7 °C 17.3 °C 1016.8 hPa SSW 1.6 km/h 3.2 km/h 81 % 0.0 mm
00:52 20.8 °C 17.2 °C 1016.8 hPa SSW 1.6 km/h 3.2 km/h 80 % 0.0 mm
00:57 20.9 °C 17.3 °C 1016.8 hPa SSW 3.2 km/h 4.8 km/h 80 % 0.0 mm
01:02 21.1 °C 17.5 °C 1016.8 hPa SSW 3.2 km/h 4.8 km/h 80 % 0.0 mm
01:07 21.1 °C 17.5 °C 1016.8 hPa South 3.2 km/h 6.4 km/h 80 % 0.0 mm
01:12 21.1 °C 17.5 °C 1016.8 hPa SSW 1.6 km/h 6.4 km/h 80 % 0.0 mm
01:17 21.1 °C 17.7 °C 1016.5 hPa WSW 8.0 km/h 8.0 km/h 81 % 0.0 mm
01:22 21.2 °C 17.8 °C 1016.8 hPa SW 4.8 km/h 8.0 km/h 81 % 0.0 mm
01:27 21.3 °C 17.7 °C 1016.8 hPa WSW 8.0 km/h 9.7 km/h 80 % 0.0 mm
01:32 21.4 °C 17.8 °C 1016.8 hPa SW 4.8 km/h 11.3 km/h 80 % 0.0 mm
01:42 21.4 °C 17.8 °C 1016.5 hPa SSW 6.4 km/h 12.9 km/h 80 % 0.0 mm
01:52 21.3 °C 17.7 °C 1016.5 hPa SW 8.0 km/h 12.9 km/h 80 % 0.0 mm
01:57 21.3 °C 17.9 °C 1016.5 hPa SW 4.8 km/h 11.3 km/h 81 % 0.0 mm
02:02 21.2 °C 17.8 °C 1016.5 hPa SW 6.4 km/h 9.7 km/h 81 % 0.0 mm
02:07 21.2 °C 17.8 °C 1016.5 hPa SSW 4.8 km/h 9.7 km/h 81 % 0.0 mm
02:12 21.1 °C 17.9 °C 1016.5 hPa SSW 6.4 km/h 9.7 km/h 82 % 0.0 mm
02:17 21.1 °C 17.9 °C 1016.5 hPa SSW 3.2 km/h 9.7 km/h 82 % 0.0 mm
02:22 21.0 °C 17.8 °C 1016.5 hPa SSW 3.2 km/h 8.0 km/h 82 % 0.0 mm
02:27 20.9 °C 17.9 °C 1016.5 hPa SW 4.8 km/h 8.0 km/h 83 % 0.0 mm
02:32 20.9 °C 17.9 °C 1016.5 hPa SW 8.0 km/h 8.0 km/h 83 % 0.0 mm
02:37 20.9 °C 17.9 °C 1016.5 hPa SW 3.2 km/h 8.0 km/h 83 % 0.0 mm
02:42 21.0 °C 17.8 °C 1016.5 hPa SW 4.8 km/h 8.0 km/h 82 % 0.0 mm
02:47 21.1 °C 17.7 °C 1016.5 hPa WSW 4.8 km/h 8.0 km/h 81 % 0.0 mm
02:52 21.2 °C 17.8 °C 1016.1 hPa SSW 3.2 km/h 8.0 km/h 81 % 0.0 mm
02:57 21.2 °C 17.8 °C 1016.1 hPa SW 1.6 km/h 8.0 km/h 81 % 0.0 mm
03:02 21.2 °C 17.8 °C 1016.1 hPa South 3.2 km/h 8.0 km/h 81 % 0.0 mm
03:07 21.2 °C 17.8 °C 1016.1 hPa SW 3.2 km/h 6.4 km/h 81 % 0.0 mm
03:12 21.1 °C 17.9 °C 1016.1 hPa SSW 1.6 km/h 6.4 km/h 82 % 0.0 mm
03:17 21.1 °C 17.9 °C 1016.1 hPa SW 4.8 km/h 4.8 km/h 82 % 0.0 mm
03:22 21.1 °C 17.9 °C 1016.5 hPa SSW 4.8 km/h 6.4 km/h 82 % 0.0 mm
03:27 21.1 °C 17.9 °C 1016.1 hPa SW 3.2 km/h 6.4 km/h 82 % 0.0 mm
03:32 21.1 °C 17.9 °C 1016.1 hPa SW 3.2 km/h 6.4 km/h 82 % 0.0 mm
03:37 21.0 °C 18.0 °C 1016.1 hPa SSW 3.2 km/h 6.4 km/h 83 % 0.0 mm
03:42 20.9 °C 17.9 °C 1016.1 hPa SW 3.2 km/h 6.4 km/h 83 % 0.0 mm
03:47 21.0 °C 17.8 °C 1016.5 hPa SW 4.8 km/h 9.7 km/h 82 % 0.0 mm
03:52 21.2 °C 17.8 °C 1016.1 hPa WSW 6.4 km/h 9.7 km/h 81 % 0.0 mm
03:57 21.2 °C 17.8 °C 1016.5 hPa WSW 6.4 km/h 12.9 km/h 81 % 0.0 mm
04:02 21.2 °C 17.8 °C 1016.5 hPa SSW 1.6 km/h 12.9 km/h 81 % 0.0 mm
04:07 21.2 °C 17.8 °C 1016.5 hPa SW 6.4 km/h 11.3 km/h 81 % 0.0 mm
04:12 21.2 °C 17.8 °C 1016.5 hPa SSW 4.8 km/h 11.3 km/h 81 % 0.0 mm
04:17 21.1 °C 17.7 °C 1016.5 hPa SSW 4.8 km/h 9.7 km/h 81 % 0.0 mm
04:22 21.1 °C 17.7 °C 1016.5 hPa SW 1.6 km/h 11.3 km/h 81 % 0.0 mm
04:32 21.1 °C 17.9 °C 1016.5 hPa SW 4.8 km/h 14.5 km/h 82 % 0.0 mm
04:37 21.1 °C 17.9 °C 1016.1 hPa SW 3.2 km/h 14.5 km/h 82 % 0.0 mm
04:42 21.0 °C 17.8 °C 1016.1 hPa SW 6.4 km/h 14.5 km/h 82 % 0.0 mm
04:47 20.9 °C 17.7 °C 1016.1 hPa SW 6.4 km/h 12.9 km/h 82 % 0.0 mm
04:52 20.9 °C 17.9 °C 1016.1 hPa South 3.2 km/h 12.9 km/h 83 % 0.0 mm
04:57 20.8 °C 17.8 °C 1016.1 hPa SSW 4.8 km/h 12.9 km/h 83 % 0.0 mm
05:02 20.8 °C 18.0 °C 1016.5 hPa SSW 6.4 km/h 12.9 km/h 84 % 0.0 mm
05:12 20.7 °C 18.1 °C 1016.1 hPa WSW 9.7 km/h 12.9 km/h 85 % 0.0 mm
05:22 20.3 °C 18.1 °C 1016.1 hPa WSW 9.7 km/h 14.5 km/h 87 % 0.0 mm
05:27 20.1 °C 18.0 °C 1016.1 hPa SW 4.8 km/h 14.5 km/h 88 % 0.0 mm
05:37 19.8 °C 18.1 °C 1016.1 hPa WSW 4.8 km/h 12.9 km/h 90 % 0.0 mm
05:42 19.7 °C 18.2 °C 1016.1 hPa WSW 6.4 km/h 9.7 km/h 91 % 0.0 mm
05:47 19.7 °C 18.2 °C 1016.5 hPa SW 6.4 km/h 9.7 km/h 91 % 0.0 mm
05:52 19.6 °C 18.3 °C 1016.1 hPa SSW 8.0 km/h 12.9 km/h 92 % 0.0 mm
05:57 19.6 °C 18.3 °C 1016.1 hPa SSW 6.4 km/h 12.9 km/h 92 % 0.0 mm
06:02 19.6 °C 18.3 °C 1016.5 hPa WSW 8.0 km/h 12.9 km/h 92 % 0.0 mm
06:07 19.6 °C 18.3 °C 1016.5 hPa WSW 9.7 km/h 12.9 km/h 92 % 0.0 mm
06:12 19.6 °C 18.3 °C 1016.5 hPa SSW 6.4 km/h 14.5 km/h 92 % 0.0 mm
06:17 19.6 °C 18.3 °C 1016.5 hPa SW 8.0 km/h 14.5 km/h 92 % 0.0 mm
06:22 19.6 °C 18.3 °C 1016.5 hPa SW 8.0 km/h 14.5 km/h 92 % 0.0 mm
06:32 19.7 °C 18.2 °C 1016.5 hPa SW 6.4 km/h 12.9 km/h 91 % 0.0 mm
06:42 19.7 °C 18.2 °C 1016.8 hPa WSW 4.8 km/h 12.9 km/h 91 % 0.0 mm
06:47 19.7 °C 18.2 °C 1016.8 hPa West 6.4 km/h 12.9 km/h 91 % 0.0 mm
06:52 19.8 °C 18.1 °C 1016.8 hPa WSW 9.7 km/h 12.9 km/h 90 % 0.0 mm
06:57 19.8 °C 18.1 °C 1016.8 hPa SW 8.0 km/h 14.5 km/h 90 % 0.0 mm
07:02 19.8 °C 18.1 °C 1016.8 hPa WSW 14.5 km/h 16.1 km/h 90 % 0.0 mm
07:07 19.8 °C 17.9 °C 1016.8 hPa SW 12.9 km/h 20.9 km/h 89 % 0.0 mm
07:12 19.8 °C 17.9 °C 1016.8 hPa WSW 12.9 km/h 20.9 km/h 89 % 0.0 mm
07:17 19.8 °C 17.9 °C 1016.8 hPa SW 8.0 km/h 20.9 km/h 89 % 0.0 mm
07:22 19.8 °C 17.8 °C 1016.8 hPa SW 14.5 km/h 16.1 km/h 88 % 0.0 mm
07:27 19.8 °C 17.8 °C 1017.2 hPa WSW 9.7 km/h 16.1 km/h 88 % 0.0 mm
07:32 19.8 °C 17.8 °C 1017.2 hPa WNW 6.4 km/h 17.7 km/h 88 % 0.0 mm
07:37 19.8 °C 17.8 °C 1017.2 hPa West 8.0 km/h 17.7 km/h 88 % 0.0 mm
07:42 19.8 °C 17.8 °C 1017.2 hPa West 9.7 km/h 20.9 km/h 88 % 0.0 mm
07:47 19.8 °C 17.8 °C 1017.2 hPa WSW 11.3 km/h 20.9 km/h 88 % 0.0 mm
07:52 19.8 °C 17.8 °C 1017.2 hPa SW 1.6 km/h 17.7 km/h 88 % 0.0 mm
07:57 19.7 °C 17.8 °C 1017.2 hPa West 4.8 km/h 14.5 km/h 89 % 0.0 mm
08:02 19.6 °C 17.7 °C 1017.5 hPa West 6.4 km/h 19.3 km/h 89 % 0.0 mm
08:07 19.4 °C 17.7 °C 1017.5 hPa SW 8.0 km/h 19.3 km/h 90 % 0.0 mm
08:12 19.2 °C 17.7 °C 1017.5 hPa WSW 4.8 km/h 19.3 km/h 91 % 0.0 mm
08:17 19.1 °C 17.8 °C 1017.5 hPa SW 11.3 km/h 17.7 km/h 92 % 0.0 mm
08:22 19.0 °C 17.5 °C 1017.5 hPa West 8.0 km/h 22.5 km/h 91 % 0.0 mm
08:27 18.9 °C 17.2 °C 1017.5 hPa WNW 8.0 km/h 22.5 km/h 90 % 0.0 mm
08:32 18.9 °C 17.2 °C 1017.5 hPa WSW 17.7 km/h 22.5 km/h 90 % 0.0 mm
08:37 18.9 °C 17.0 °C 1017.8 hPa West 3.2 km/h 17.7 km/h 89 % 0.0 mm
08:42 18.9 °C 17.0 °C 1017.5 hPa WSW 6.4 km/h 17.7 km/h 89 % 0.0 mm
08:47 18.9 °C 16.9 °C 1017.8 hPa WSW 11.3 km/h 17.7 km/h 88 % 0.0 mm
08:52 18.9 °C 17.0 °C 1017.8 hPa West 9.7 km/h 14.5 km/h 89 % 0.0 mm
08:57 18.9 °C 16.9 °C 1017.8 hPa West 9.7 km/h 17.7 km/h 88 % 0.0 mm
09:02 19.1 °C 17.2 °C 1017.8 hPa WSW 4.8 km/h 17.7 km/h 89 % 0.0 mm
09:12 19.3 °C 17.4 °C 1017.8 hPa West 8.0 km/h 17.7 km/h 89 % 0.0 mm
09:17 19.3 °C 17.1 °C 1018.2 hPa WSW 11.3 km/h 17.7 km/h 87 % 0.0 mm
09:22 19.4 °C 17.2 °C 1018.2 hPa WSW 9.7 km/h 17.7 km/h 87 % 0.0 mm
09:27 19.6 °C 17.2 °C 1018.2 hPa WNW 8.0 km/h 14.5 km/h 86 % 0.0 mm
09:32 19.7 °C 16.7 °C 1018.2 hPa West 9.7 km/h 17.7 km/h 83 % 0.0 mm
09:37 19.7 °C 16.5 °C 1018.2 hPa WSW 8.0 km/h 19.3 km/h 82 % 0.0 mm
09:42 19.8 °C 16.8 °C 1018.2 hPa West 11.3 km/h 19.3 km/h 83 % 0.0 mm
09:47 19.8 °C 16.6 °C 1018.5 hPa WNW 8.0 km/h 19.3 km/h 82 % 0.0 mm
09:52 19.9 °C 16.7 °C 1018.5 hPa WNW 11.3 km/h 16.1 km/h 82 % 0.0 mm
09:57 20.1 °C 16.7 °C 1018.5 hPa West 4.8 km/h 17.7 km/h 81 % 0.0 mm
10:02 20.3 °C 16.7 °C 1018.5 hPa West 8.0 km/h 19.3 km/h 80 % 0.0 mm
10:07 20.4 °C 16.4 °C 1018.5 hPa SW 11.3 km/h 19.3 km/h 78 % 0.0 mm
10:12 20.6 °C 16.4 °C 1018.8 hPa NW 8.0 km/h 19.3 km/h 77 % 0.0 mm
10:17 20.3 °C 15.9 °C 1018.8 hPa NW 6.4 km/h 19.3 km/h 76 % 0.0 mm
10:22 20.2 °C 16.0 °C 1018.8 hPa West 11.3 km/h 19.3 km/h 77 % 0.0 mm
10:27 20.4 °C 16.2 °C 1018.8 hPa West 14.5 km/h 19.3 km/h 77 % 0.0 mm
10:32 20.5 °C 15.7 °C 1018.8 hPa WSW 8.0 km/h 17.7 km/h 74 % 0.0 mm
10:37 20.8 °C 16.0 °C 1018.8 hPa SW 9.7 km/h 17.7 km/h 74 % 0.0 mm
10:42 20.7 °C 15.5 °C 1018.8 hPa SW 14.5 km/h 17.7 km/h 72 % 0.0 mm
10:47 20.7 °C 15.9 °C 1018.8 hPa SSW 6.4 km/h 17.7 km/h 74 % 0.0 mm
10:57 20.7 °C 15.5 °C 1018.8 hPa WSW 9.7 km/h 17.7 km/h 72 % 0.0 mm
11:02 20.8 °C 15.6 °C 1019.2 hPa West 6.4 km/h 14.5 km/h 72 % 0.0 mm
11:07 20.7 °C 15.0 °C 1018.8 hPa WSW 9.7 km/h 14.5 km/h 70 % 0.0 mm
11:12 20.8 °C 15.3 °C 1018.8 hPa West 8.0 km/h 17.7 km/h 71 % 0.0 mm
11:17 21.1 °C 15.0 °C 1018.8 hPa South 6.4 km/h 17.7 km/h 68 % 0.0 mm
11:22 21.2 °C 15.1 °C 1018.8 hPa West 8.0 km/h 17.7 km/h 68 % 0.0 mm
11:27 21.3 °C 14.5 °C 1018.8 hPa West 11.3 km/h 19.3 km/h 65 % 0.0 mm
11:32 21.0 °C 14.6 °C 1018.8 hPa West 1.6 km/h 22.5 km/h 67 % 0.0 mm
11:42 20.8 °C 14.9 °C 1018.8 hPa WNW 4.8 km/h 22.5 km/h 69 % 0.0 mm
11:47 21.1 °C 15.2 °C 1018.8 hPa Calm   16.1 km/h 69 % 0.0 mm
11:52 21.8 °C 14.9 °C 1018.8 hPa WNW 12.9 km/h 12.9 km/h 65 % 0.0 mm
11:57 21.9 °C 14.8 °C 1018.8 hPa WNW 4.8 km/h 17.7 km/h 64 % 0.0 mm
12:02 22.1 °C 15.0 °C 1018.8 hPa WNW 9.7 km/h 22.5 km/h 64 % 0.0 mm
12:07 21.5 °C 14.9 °C 1018.8 hPa NW 12.9 km/h 22.5 km/h 66 % 0.0 mm
12:12 21.7 °C 14.6 °C 1018.8 hPa WNW 8.0 km/h 22.5 km/h 64 % 0.0 mm
12:17 22.2 °C 15.1 °C 1018.8 hPa WSW 3.2 km/h 20.9 km/h 64 % 0.0 mm
12:22 22.4 °C 14.8 °C 1019.2 hPa WNW 11.3 km/h 17.7 km/h 62 % 0.0 mm
12:32 22.1 °C 14.0 °C 1019.2 hPa West 6.4 km/h 16.1 km/h 60 % 0.0 mm
12:42 22.2 °C 14.6 °C 1019.5 hPa NNW 4.8 km/h 20.9 km/h 62 % 0.0 mm
12:47 21.9 °C 14.0 °C 1019.5 hPa West 4.8 km/h 20.9 km/h 61 % 0.0 mm
12:52 22.0 °C 13.9 °C 1019.5 hPa NW 8.0 km/h 20.9 km/h 60 % 0.0 mm
13:02 22.1 °C 14.2 °C 1019.9 hPa WNW 6.4 km/h 20.9 km/h 61 % 0.0 mm
13:07 22.3 °C 14.4 °C 1019.9 hPa West 4.8 km/h 20.9 km/h 61 % 0.0 mm
13:12 22.5 °C 14.1 °C 1019.9 hPa West 8.0 km/h 22.5 km/h 59 % 0.0 mm
13:17 22.5 °C 14.3 °C 1019.9 hPa NNE 6.4 km/h 22.5 km/h 60 % 0.0 mm
13:22 22.5 °C 14.3 °C 1019.9 hPa West 8.0 km/h 22.5 km/h 60 % 0.0 mm
13:27 22.3 °C 13.9 °C 1019.9 hPa WNW 6.4 km/h 22.5 km/h 59 % 0.0 mm
13:32 22.3 °C 13.6 °C 1019.9 hPa West 11.3 km/h 22.5 km/h 58 % 0.0 mm
13:37 22.2 °C 14.3 °C 1019.9 hPa WNW 17.7 km/h 22.5 km/h 61 % 0.0 mm
13:42 22.1 °C 14.2 °C 1019.9 hPa WNW 8.0 km/h 20.9 km/h 61 % 0.0 mm
13:47 21.9 °C 14.0 °C 1019.9 hPa West 8.0 km/h 19.3 km/h 61 % 0.0 mm
13:52 21.8 °C 13.4 °C 1019.9 hPa NW 9.7 km/h 20.9 km/h 59 % 0.0 mm
13:57 21.9 °C 13.8 °C 1019.9 hPa WNW 4.8 km/h 22.5 km/h 60 % 0.0 mm
14:02 21.9 °C 13.8 °C 1019.9 hPa West 4.8 km/h 22.5 km/h 60 % 0.0 mm
14:07 21.8 °C 13.4 °C 1019.9 hPa NW 9.7 km/h 20.9 km/h 59 % 0.0 mm
14:12 21.7 °C 13.1 °C 1020.2 hPa WNW 14.5 km/h 17.7 km/h 58 % 0.0 mm
14:17 21.7 °C 13.1 °C 1020.2 hPa WNW 8.0 km/h 19.3 km/h 58 % 0.0 mm
14:22 21.7 °C 13.1 °C 1020.2 hPa WNW 6.4 km/h 19.3 km/h 58 % 0.0 mm
14:27 21.7 °C 13.1 °C 1020.2 hPa NW 8.0 km/h 20.9 km/h 58 % 0.0 mm
14:32 21.7 °C 12.8 °C 1020.2 hPa WNW 6.4 km/h 20.9 km/h 57 % 0.0 mm
14:37 21.7 °C 13.1 °C 1020.2 hPa NW 11.3 km/h 20.9 km/h 58 % 0.0 mm
14:42 21.6 °C 13.0 °C 1020.2 hPa WSW 9.7 km/h 17.7 km/h 58 % 0.0 mm
14:47 21.7 °C 13.1 °C 1020.2 hPa WNW 9.7 km/h 17.7 km/h 58 % 0.0 mm
14:52 21.6 °C 13.2 °C 1020.2 hPa WSW 12.9 km/h 16.1 km/h 59 % 0.0 mm
14:57 21.7 °C 13.3 °C 1020.2 hPa West 6.4 km/h 19.3 km/h 59 % 0.0 mm
15:02 21.8 °C 13.2 °C 1020.5 hPa West 9.7 km/h 19.3 km/h 58 % 0.0 mm
15:07 21.7 °C 13.3 °C 1020.5 hPa West 3.2 km/h 16.1 km/h 59 % 0.0 mm
15:12 21.7 °C 13.1 °C 1020.5 hPa WSW 4.8 km/h 19.3 km/h 58 % 0.0 mm
15:17 21.7 °C 13.1 °C 1020.5 hPa WNW 4.8 km/h 19.3 km/h 58 % 0.0 mm
15:22 21.8 °C 13.2 °C 1020.5 hPa WNW 11.3 km/h 19.3 km/h 58 % 0.0 mm
15:27 21.9 °C 13.3 °C 1020.5 hPa West 8.0 km/h 19.3 km/h 58 % 0.0 mm
15:32 22.2 °C 13.5 °C 1020.5 hPa West 6.4 km/h 17.7 km/h 58 % 0.0 mm
15:37 22.4 °C 13.5 °C 1020.5 hPa WNW 9.7 km/h 16.1 km/h 57 % 0.0 mm
15:42 22.1 °C 13.2 °C 1020.2 hPa WNW 4.8 km/h 17.7 km/h 57 % 0.0 mm
15:47 22.1 °C 13.4 °C 1020.5 hPa West 9.7 km/h 17.7 km/h 58 % 0.0 mm
15:52 22.1 °C 13.4 °C 1020.5 hPa West 9.7 km/h 17.7 km/h 58 % 0.0 mm
16:02 22.1 °C 13.7 °C 1020.5 hPa West 1.6 km/h 20.9 km/h 59 % 0.0 mm
16:07 22.1 °C 13.4 °C 1020.5 hPa WNW 6.4 km/h 20.9 km/h 58 % 0.0 mm
16:12 22.1 °C 13.7 °C 1020.5 hPa NNW 4.8 km/h 17.7 km/h 59 % 0.0 mm
16:17 22.1 °C 14.0 °C 1020.5 hPa WNW 11.3 km/h 17.7 km/h 60 % 0.0 mm
16:22 21.9 °C 13.8 °C 1020.5 hPa WNW 4.8 km/h 17.7 km/h 60 % 0.0 mm
16:27 21.8 °C 13.4 °C 1020.5 hPa WNW 4.8 km/h 16.1 km/h 59 % 0.0 mm
16:32 21.6 °C 13.8 °C 1020.5 hPa WNW 14.5 km/h 22.5 km/h 61 % 0.0 mm
16:42 21.7 °C 13.3 °C 1020.5 hPa WNW 6.4 km/h 22.5 km/h 59 % 0.0 mm
16:47 21.8 °C 13.7 °C 1020.5 hPa WNW 12.9 km/h 16.1 km/h 60 % 0.0 mm
16:52 21.9 °C 13.5 °C 1020.5 hPa WSW 3.2 km/h 16.1 km/h 59 % 0.0 mm
16:57 21.9 °C 13.5 °C 1020.5 hPa WNW 6.4 km/h 17.7 km/h 59 % 0.0 mm
17:02 22.0 °C 13.6 °C 1020.5 hPa WNW 4.8 km/h 17.7 km/h 59 % 0.0 mm
17:07 21.9 °C 13.8 °C 1020.5 hPa NNW 1.6 km/h 17.7 km/h 60 % 0.0 mm
17:12 22.2 °C 13.5 °C 1020.5 hPa NNW 8.0 km/h 11.3 km/h 58 % 0.0 mm
17:17 22.1 °C 13.4 °C 1020.5 hPa WNW 4.8 km/h 14.5 km/h 58 % 0.0 mm
17:22 22.2 °C 13.5 °C 1020.5 hPa WNW 9.7 km/h 16.1 km/h 58 % 0.0 mm
17:27 22.7 °C 13.5 °C 1020.5 hPa West 12.9 km/h 17.7 km/h 56 % 0.0 mm
17:32 22.6 °C 13.1 °C 1020.5 hPa WNW 3.2 km/h 17.7 km/h 55 % 0.0 mm
17:37 22.6 °C 13.4 °C 1020.5 hPa NW 4.8 km/h 17.7 km/h 56 % 0.0 mm
17:42 22.7 °C 12.9 °C 1020.5 hPa WNW 4.8 km/h 16.1 km/h 54 % 0.0 mm
17:47 22.7 °C 12.6 °C 1020.5 hPa West 1.6 km/h 16.1 km/h 53 % 0.0 mm
17:52 23.0 °C 12.3 °C 1020.5 hPa WNW 4.8 km/h 22.5 km/h 51 % 0.0 mm
17:57 22.9 °C 11.9 °C 1020.5 hPa West 8.0 km/h 22.5 km/h 50 % 0.0 mm
18:02 22.7 °C 12.3 °C 1020.5 hPa West 12.9 km/h 22.5 km/h 52 % 0.0 mm
18:07 22.4 °C 12.1 °C 1020.5 hPa WNW 6.4 km/h 19.3 km/h 52 % 0.0 mm
18:12 22.3 °C 12.0 °C 1020.5 hPa WNW 8.0 km/h 17.7 km/h 52 % 0.0 mm
18:17 22.2 °C 11.9 °C 1020.5 hPa West 6.4 km/h 14.5 km/h 52 % 0.0 mm
18:22 22.2 °C 11.9 °C 1020.5 hPa NW 9.7 km/h 9.7 km/h 52 % 0.0 mm
18:27 22.1 °C 11.8 °C 1020.5 hPa WNW 4.8 km/h 14.5 km/h 52 % 0.0 mm
18:32 22.0 °C 11.7 °C 1020.5 hPa NW 4.8 km/h 14.5 km/h 52 % 0.0 mm
18:42 21.9 °C 11.6 °C 1020.5 hPa WNW 4.8 km/h 12.9 km/h 52 % 0.0 mm
18:47 21.9 °C 11.9 °C 1020.9 hPa NNW 1.6 km/h 11.3 km/h 53 % 0.0 mm
18:57 21.8 °C 11.8 °C 1020.9 hPa West 3.2 km/h 11.3 km/h 53 % 0.0 mm
19:02 21.8 °C 12.1 °C 1020.9 hPa West 3.2 km/h 11.3 km/h 54 % 0.0 mm
19:07 21.7 °C 12.0 °C 1020.9 hPa NW 3.2 km/h 11.3 km/h 54 % 0.0 mm
19:12 21.7 °C 12.0 °C 1020.9 hPa NW 3.2 km/h 9.7 km/h 54 % 0.0 mm
19:17 21.7 °C 12.3 °C 1020.9 hPa WNW 4.8 km/h 9.7 km/h 55 % 0.0 mm
19:22 21.7 °C 12.3 °C 1020.9 hPa NW 3.2 km/h 9.7 km/h 55 % 0.0 mm
19:27 21.7 °C 12.3 °C 1020.9 hPa NW 3.2 km/h 8.0 km/h 55 % 0.0 mm
19:32 21.9 °C 12.2 °C 1020.9 hPa WNW 1.6 km/h 8.0 km/h 54 % 0.0 mm
19:37 22.1 °C 12.4 °C 1020.9 hPa WNW 3.2 km/h 9.7 km/h 54 % 0.0 mm
19:42 21.9 °C 11.9 °C 1020.9 hPa NNW 4.8 km/h 11.3 km/h 53 % 0.0 mm
19:47 21.9 °C 12.2 °C 1020.9 hPa Calm   11.3 km/h 54 % 0.0 mm
19:52 21.9 °C 11.9 °C 1020.9 hPa NW 6.4 km/h 11.3 km/h 53 % 0.0 mm
19:57 21.8 °C 12.1 °C 1020.9 hPa WNW 3.2 km/h 9.7 km/h 54 % 0.0 mm
20:02 21.8 °C 12.1 °C 1020.9 hPa WNW 1.6 km/h 9.7 km/h 54 % 0.0 mm
20:07 21.8 °C 12.1 °C 1021.2 hPa NW 4.8 km/h 9.7 km/h 54 % 0.0 mm
20:12 21.9 °C 12.2 °C 1021.2 hPa WNW 1.6 km/h 8.0 km/h 54 % 0.0 mm
20:17 21.9 °C 12.2 °C 1021.2 hPa Calm   8.0 km/h 54 % 0.0 mm
20:22 21.8 °C 11.8 °C 1021.2 hPa WSW 3.2 km/h 8.0 km/h 53 % 0.0 mm
20:27 21.6 °C 11.6 °C 1021.2 hPa West 3.2 km/h 8.0 km/h 53 % 0.0 mm
20:32 21.5 °C 11.8 °C 1021.2 hPa West 1.6 km/h 8.0 km/h 54 % 0.0 mm
20:37 21.4 °C 12.0 °C 1021.2 hPa West 1.6 km/h 8.0 km/h 55 % 0.0 mm
20:47 21.2 °C 12.1 °C 1021.2 hPa Calm   4.8 km/h 56 % 0.0 mm
20:52 21.3 °C 12.2 °C 1021.2 hPa West 1.6 km/h 4.8 km/h 56 % 0.0 mm
20:57 21.3 °C 12.4 °C 1021.2 hPa West 1.6 km/h 4.8 km/h 57 % 0.0 mm
21:02 21.1 °C 12.5 °C 1021.2 hPa Calm   3.2 km/h 58 % 0.0 mm
21:07 20.9 °C 12.6 °C 1021.2 hPa Calm   1.6 km/h 59 % 0.0 mm
21:12 20.7 °C 12.7 °C 1021.2 hPa Calm   1.6 km/h 60 % 0.0 mm
21:17 20.4 °C 12.6 °C 1021.2 hPa Calm   1.6 km/h 61 % 0.0 mm
21:22 20.2 °C 12.7 °C 1021.6 hPa Calm     62 % 0.0 mm
21:27 20.0 °C 12.7 °C 1021.6 hPa Calm     63 % 0.0 mm
21:32 19.8 °C 12.8 °C 1021.6 hPa Calm     64 % 0.0 mm
21:37 19.4 °C 12.7 °C 1021.6 hPa Calm     65 % 0.0 mm
21:42 19.2 °C 12.7 °C 1021.6 hPa Calm     66 % 0.0 mm
21:47 19.0 °C 12.7 °C 1021.9 hPa Calm     67 % 0.0 mm
21:52 18.8 °C 12.8 °C 1021.6 hPa WNW 3.2 km/h   68 % 0.0 mm
21:57 18.6 °C 12.6 °C 1021.9 hPa WNW 3.2 km/h 3.2 km/h 68 % 0.0 mm
22:02 18.4 °C 12.4 °C 1021.9 hPa Calm   3.2 km/h 68 % 0.0 mm
22:07 18.2 °C 12.4 °C 1021.9 hPa West 1.6 km/h 3.2 km/h 69 % 0.0 mm
22:12 18.1 °C 12.3 °C 1021.9 hPa NW 3.2 km/h 3.2 km/h 69 % 0.0 mm
22:17 17.9 °C 12.1 °C 1022.2 hPa WNW 1.6 km/h 4.8 km/h 69 % 0.0 mm
22:22 17.7 °C 12.2 °C 1021.9 hPa Calm   4.8 km/h 70 % 0.0 mm
22:27 17.6 °C 12.3 °C 1022.2 hPa WNW 1.6 km/h 4.8 km/h 71 % 0.0 mm
22:32 17.6 °C 12.3 °C 1022.2 hPa Calm   3.2 km/h 71 % 0.0 mm
22:37 17.5 °C 12.2 °C 1022.2 hPa Calm   3.2 km/h 71 % 0.0 mm
22:42 17.4 °C 12.1 °C 1022.2 hPa WNW 1.6 km/h 3.2 km/h 71 % 0.0 mm
22:47 17.2 °C 11.9 °C 1022.2 hPa WNW 1.6 km/h 3.2 km/h 71 % 0.0 mm
22:52 17.1 °C 12.0 °C 1022.2 hPa West 1.6 km/h 3.2 km/h 72 % 0.0 mm
22:57 17.1 °C 12.0 °C 1022.2 hPa WNW 4.8 km/h 4.8 km/h 72 % 0.0 mm
23:02 17.0 °C 11.9 °C 1022.2 hPa WNW 3.2 km/h 4.8 km/h 72 % 0.0 mm
23:07 16.9 °C 12.0 °C 1022.2 hPa WNW 4.8 km/h 4.8 km/h 73 % 0.0 mm
23:12 16.8 °C 11.7 °C 1022.2 hPa WNW 1.6 km/h 4.8 km/h 72 % 0.0 mm
23:17 16.9 °C 11.6 °C 1022.2 hPa NW 3.2 km/h 4.8 km/h 71 % 0.0 mm
23:22 17.0 °C 11.7 °C 1022.2 hPa NW 6.4 km/h 6.4 km/h 71 % 0.0 mm
23:27 17.1 °C 11.4 °C 1022.2 hPa WNW 6.4 km/h 9.7 km/h 69 % 0.0 mm
23:32 17.2 °C 11.2 °C 1022.2 hPa WNW 6.4 km/h 9.7 km/h 68 % 0.0 mm
23:37 17.3 °C 11.1 °C 1022.6 hPa WNW 1.6 km/h 9.7 km/h 67 % 0.0 mm
23:42 17.3 °C 10.9 °C 1022.6 hPa WNW 3.2 km/h 9.7 km/h 66 % 0.0 mm
23:47 17.3 °C 10.9 °C 1022.2 hPa WNW 1.6 km/h 11.3 km/h 66 % 0.0 mm
23:52 17.3 °C 10.9 °C 1022.6 hPa WNW 1.6 km/h 11.3 km/h 66 % 0.0 mm
23:57 17.3 °C 10.9 °C 1022.6 hPa West 1.6 km/h 11.3 km/h 66 % 0.0 mm
Meteo18
Compliments of Weather Underground - 4 mb

Script developed by  Jim McMurry - jmcmurry@mwt.net Adapted for the template by  Wim van der Kuil - Leuven-Template.eu

You find our weather info also at:

European Weather Network

Weather Underground

Equipment we use:

Weather-station
Davis Vue

Weather-program
Meteohub

Weather-server
Raspberry PI 2 B+

Provider
1 and 1

Davis Vue

Meteohub

Raspberry PI 2 B+

1 and 1